AUA107 LGAV-LOWI

Flight info

Callsign AUA107
Flight time N/A
Altitude 34000
Route KOR UL613 YNN UL611 TUMBO DCT OVVER DCT RODON DCT SIPAL DCT NUPSO DCT RIFEN DCT GOTEK DCT BRENO
Aircraft A321/M-SDE3FGHIRWY/LB1

Departure

Time 2026-05-04 13:22
Airport Athens Eleftherios Venizelos International Airport (LGAV)

Arrival

Time N/A
Airport Innsbruck Airport (LOWI)
Time Latitude Longitude Altitude Speed Heading
2026-05-04 12:33 37.93509 23.94753 301 ft 0 kts 306°
2026-05-04 13:11 37.93500 23.94768 304 ft 4 kts 303°
2026-05-04 13:11 37.93487 23.94798 301 ft 4 kts 292°
2026-05-04 13:12 37.93480 23.94829 301 ft 4 kts 265°
2026-05-04 13:12 37.93486 23.94851 303 ft 0 kts 217°
2026-05-04 13:14 37.93482 23.94847 301 ft 3 kts 217°
2026-05-04 13:14 37.93453 23.94819 301 ft 6 kts 217°
2026-05-04 13:15 37.93423 23.94791 301 ft 5 kts 217°
2026-05-04 13:15 37.93398 23.94768 303 ft 5 kts 217°
2026-05-04 13:15 37.93364 23.94735 303 ft 7 kts 217°
2026-05-04 13:15 37.93324 23.94697 302 ft 7 kts 217°
2026-05-04 13:16 37.93290 23.94664 305 ft 6 kts 217°
2026-05-04 13:16 37.93254 23.94630 301 ft 7 kts 217°
2026-05-04 13:16 37.93211 23.94599 303 ft 8 kts 197°
2026-05-04 13:16 37.93156 23.94593 301 ft 8 kts 181°
2026-05-04 13:17 37.93104 23.94598 304 ft 7 kts 160°
2026-05-04 13:17 37.93077 23.94638 301 ft 6 kts 126°
2026-05-04 13:17 37.93051 23.94672 300 ft 5 kts 150°
2026-05-04 13:17 37.93022 23.94675 300 ft 4 kts 195°
2026-05-04 13:18 37.92991 23.94655 300 ft 8 kts 211°
2026-05-04 13:18 37.92933 23.94601 302 ft 11 kts 217°
2026-05-04 13:18 37.92876 23.94546 302 ft 9 kts 217°
2026-05-04 13:18 37.92833 23.94505 302 ft 7 kts 216°
2026-05-04 13:19 37.92796 23.94471 302 ft 7 kts 216°
2026-05-04 13:19 37.92741 23.94419 302 ft 12 kts 217°
2026-05-04 13:19 37.92678 23.94360 303 ft 10 kts 217°
2026-05-04 13:19 37.92636 23.94320 306 ft 6 kts 217°
2026-05-04 13:20 37.92603 23.94290 303 ft 6 kts 214°
2026-05-04 13:20 37.92558 23.94293 307 ft 7 kts 146°
2026-05-04 13:20 37.92528 23.94338 307 ft 5 kts 128°
2026-05-04 13:20 37.92506 23.94376 307 ft 6 kts 127°
2026-05-04 13:21 37.92489 23.94434 311 ft 8 kts 90°
2026-05-04 13:21 37.92509 23.94474 309 ft 0 kts 39°
2026-05-04 13:21 37.92512 23.94476 309 ft 0 kts 33°
2026-05-04 13:21 37.92514 23.94478 309 ft 5 kts 33°
2026-05-04 13:22 37.92785 23.94729 302 ft 92 kts 39°
2026-05-04 13:22 37.93487 23.95414 284 ft 160 kts 37°
2026-05-04 13:22 37.94451 23.96381 692 ft 181 kts 42°
2026-05-04 13:22 37.95380 23.97411 1651 ft 176 kts 36°
2026-05-04 13:23 37.96339 23.98369 2214 ft 179 kts 33°
2026-05-04 13:23 37.97403 23.99343 2395 ft 198 kts 32°
2026-05-04 13:23 37.98576 24.00405 2518 ft 217 kts 31°
2026-05-04 13:23 37.99845 24.01565 2786 ft 234 kts 31°
2026-05-04 13:24 38.01170 24.02801 3433 ft 238 kts 33°
2026-05-04 13:24 38.02508 24.04068 4062 ft 242 kts 33°
2026-05-04 13:24 38.03863 24.05360 4727 ft 245 kts 33°
2026-05-04 13:25 38.06894 24.07504 5685 ft 258 kts
2026-05-04 13:25 38.08640 24.07189 6315 ft 255 kts 333°
2026-05-04 13:25 38.10026 24.05830 6930 ft 256 kts 307°
2026-05-04 13:25 38.10726 24.03747 7547 ft 263 kts 279°
2026-05-04 13:26 38.10712 24.01393 8161 ft 269 kts 271°
2026-05-04 13:26 38.10694 23.99035 8751 ft 272 kts 274°
2026-05-04 13:26 38.10743 23.96584 9372 ft 276 kts 275°
2026-05-04 13:26 38.10811 23.94172 9985 ft 280 kts 275°
2026-05-04 13:27 38.10881 23.91648 10294 ft 296 kts 275°
2026-05-04 13:27 38.10944 23.88949 10414 ft 315 kts 275°
2026-05-04 13:27 38.10997 23.86089 10539 ft 333 kts 274°
2026-05-04 13:27 38.11041 23.83076 10777 ft 346 kts 274°
2026-05-04 13:28 38.11076 23.80000 11235 ft 352 kts 274°
2026-05-04 13:28 38.11109 23.76878 11742 ft 356 kts 274°
2026-05-04 13:28 38.11141 23.73722 12238 ft 359 kts 274°
2026-05-04 13:28 38.11173 23.70536 12765 ft 362 kts 275°
2026-05-04 13:29 38.11206 23.67321 13264 ft 366 kts 274°
2026-05-04 13:29 38.11239 23.64115 13763 ft 369 kts 274°
2026-05-04 13:29 38.11274 23.60845 14202 ft 373 kts 274°
2026-05-04 13:29 38.11311 23.57540 14630 ft 375 kts 274°
2026-05-04 13:30 38.11346 23.54210 15070 ft 379 kts 273°
2026-05-04 13:30 38.11376 23.50851 15499 ft 382 kts 274°
2026-05-04 13:30 38.11406 23.47461 15889 ft 385 kts 274°
2026-05-04 13:30 38.11439 23.44043 16297 ft 389 kts 274°
2026-05-04 13:31 38.11472 23.40606 16750 ft 390 kts 273°
2026-05-04 13:31 38.11501 23.37164 17248 ft 391 kts 273°
2026-05-04 13:31 38.11527 23.33706 17684 ft 393 kts 273°
2026-05-04 13:31 38.11553 23.30224 18094 ft 395 kts 272°
2026-05-04 13:32 38.11579 23.26780 18458 ft 397 kts 272°
2026-05-04 13:32 38.11604 23.23264 18773 ft 399 kts 272°
2026-05-04 13:32 38.11628 23.19736 19112 ft 400 kts 273°
2026-05-04 13:32 38.11653 23.16197 19444 ft 401 kts 273°
2026-05-04 13:33 38.11679 23.12660 19885 ft 399 kts 274°
2026-05-04 13:33 38.11700 23.09146 20322 ft 397 kts 276°
2026-05-04 13:33 38.11717 23.05654 20796 ft 395 kts 276°
2026-05-04 13:33 38.11735 23.02171 21191 ft 395 kts 276°
2026-05-04 13:34 38.11754 22.98732 21546 ft 396 kts 276°
2026-05-04 13:34 38.11773 22.95234 21910 ft 397 kts 277°
2026-05-04 13:34 38.11792 22.91726 22260 ft 398 kts 277°
2026-05-04 13:34 38.11810 22.88208 22619 ft 399 kts 277°
2026-05-04 13:35 38.11823 22.84679 22973 ft 400 kts 277°
2026-05-04 13:35 38.12681 22.77903 23597 ft 381 kts 306°
2026-05-04 13:35 38.14413 22.75467 23901 ft 371 kts 327°
2026-05-04 13:36 38.16739 22.74225 24160 ft 372 kts 349°
2026-05-04 13:36 38.19335 22.74358 24403 ft 383 kts 11°
2026-05-04 13:36 38.21751 22.75905 24616 ft 401 kts 33°
2026-05-04 13:36 38.23638 22.78621 24860 ft 419 kts 50°
2026-05-04 13:37 38.25089 22.81893 25016 ft 430 kts 58°
2026-05-04 13:37 38.26287 22.85410 25241 ft 436 kts 62°
2026-05-04 13:37 38.27331 22.89054 25499 ft 440 kts 64°
2026-05-04 13:37 38.27965 22.91505 25640 ft 442 kts 65°
2026-05-04 13:38 38.29145 22.96554 25948 ft 447 kts 68°
2026-05-04 13:38 38.29940 23.00334 26185 ft 450 kts 69°
2026-05-04 13:38 38.30685 23.04224 26416 ft 454 kts 70°
2026-05-04 13:38 38.31367 23.08160 26663 ft 457 kts 71°
2026-05-04 13:39 38.31987 23.12138 26947 ft 459 kts 73°
2026-05-04 13:39 38.32582 23.16133 27221 ft 460 kts 73°
2026-05-04 13:39 38.33235 23.20104 27439 ft 456 kts 67°
2026-05-04 13:39 38.34465 23.23776 27659 ft 445 kts 52°
2026-05-04 13:40 38.36322 23.26853 27828 ft 435 kts 38°
2026-05-04 13:40 38.38649 23.29155 28040 ft 425 kts 24°
2026-05-04 13:40 38.41326 23.30643 28218 ft 417 kts 11°
2026-05-04 13:40 38.44163 23.31257 28413 ft 412 kts 359°
2026-05-04 13:41 38.47002 23.31002 28586 ft 409 kts 347°
2026-05-04 13:41 38.49699 23.29906 28784 ft 407 kts 334°
2026-05-04 13:41 38.52121 23.28043 28960 ft 409 kts 323°
2026-05-04 13:42 38.55760 23.22399 29229 ft 419 kts 305°
2026-05-04 13:42 38.57318 23.19237 29379 ft 420 kts 306°
2026-05-04 13:42 38.58873 23.16077 29579 ft 420 kts 306°
2026-05-04 13:42 38.60401 23.12969 29819 ft 419 kts 306°
2026-05-04 13:43 38.61945 23.09820 30054 ft 417 kts 306°
2026-05-04 13:43 38.63476 23.06697 30393 ft 412 kts 306°
2026-05-04 13:43 38.64995 23.03605 30652 ft 410 kts 306°
2026-05-04 13:43 38.66512 23.00523 30851 ft 409 kts 306°
2026-05-04 13:44 38.68028 22.97442 31028 ft 408 kts 306°
2026-05-04 13:44 38.69536 22.94365 31223 ft 407 kts 306°
2026-05-04 13:44 38.71017 22.91338 31408 ft 407 kts 306°
2026-05-04 13:44 38.72519 22.88269 31590 ft 406 kts 306°
2026-05-04 13:45 38.74017 22.85200 31769 ft 406 kts 306°
2026-05-04 13:45 38.75512 22.82131 31961 ft 406 kts 306°
2026-05-04 13:45 38.77005 22.79063 32150 ft 406 kts 306°
2026-05-04 13:45 38.78494 22.76000 32376 ft 403 kts 306°
2026-05-04 13:46 38.79972 22.72959 32645 ft 401 kts 306°
2026-05-04 13:46 38.81442 22.69932 32864 ft 399 kts 306°
2026-05-04 13:46 38.82907 22.66918 33058 ft 399 kts 306°
2026-05-04 13:46 38.84352 22.63941 33224 ft 398 kts 306°
2026-05-04 13:47 38.85813 22.60925 33402 ft 398 kts 306°
2026-05-04 13:47 38.87272 22.57911 33574 ft 397 kts 306°
2026-05-04 13:47 38.88728 22.54900 33750 ft 397 kts 306°
2026-05-04 13:47 38.90182 22.51888 33910 ft 397 kts 306°
2026-05-04 13:48 38.91635 22.48875 34077 ft 397 kts 306°
2026-05-04 13:48 38.93087 22.45864 34126 ft 396 kts 306°
2026-05-04 13:48 38.95948 22.39927 34120 ft 393 kts 306°
2026-05-04 13:49 38.98818 22.33957 34118 ft 392 kts 306°
2026-05-04 13:49 39.01683 22.27981 34117 ft 393 kts 306°
2026-05-04 13:50 39.04550 22.21994 34114 ft 393 kts 306°
2026-05-04 13:50 39.07396 22.16041 34111 ft 393 kts 306°
2026-05-04 13:51 39.10260 22.10039 34077 ft 393 kts 306°
2026-05-04 13:51 39.13122 22.04030 34085 ft 394 kts 306°
2026-05-04 13:52 39.17408 21.95011 34103 ft 394 kts 306°
2026-05-04 13:53 39.20246 21.89028 34098 ft 394 kts 306°
2026-05-04 13:53 39.23094 21.83001 34102 ft 393 kts 306°
2026-05-04 13:54 39.27357 21.73964 34092 ft 393 kts 305°
2026-05-04 13:55 39.31590 21.64959 34098 ft 393 kts 305°
2026-05-04 13:55 39.35841 21.55894 34098 ft 394 kts 306°
2026-05-04 13:56 39.38685 21.49833 34106 ft 394 kts 305°
2026-05-04 13:57 39.42938 21.40738 34105 ft 394 kts 305°
2026-05-04 13:58 39.48558 21.28649 34113 ft 393 kts 305°
2026-05-04 13:58 39.52777 21.19549 34100 ft 393 kts 305°
2026-05-04 13:59 39.55572 21.13516 34065 ft 393 kts 305°
2026-05-04 14:00 39.59780 21.04398 34084 ft 393 kts 305°
2026-05-04 14:00 39.63984 20.95267 34098 ft 393 kts 304°
2026-05-04 14:01 39.66789 20.89159 34099 ft 394 kts 304°
2026-05-04 14:02 39.71599 20.80702 34098 ft 388 kts 322°
2026-05-04 14:02 39.75930 20.76552 34088 ft 387 kts 325°
2026-05-04 14:03 39.80281 20.72440 34109 ft 386 kts 324°
2026-05-04 14:03 39.84596 20.68349 34111 ft 386 kts 324°
2026-05-04 14:04 39.91096 20.62170 34094 ft 386 kts 325°
2026-05-04 14:04 39.95446 20.58028 34076 ft 388 kts 325°
2026-05-04 14:05 40.01995 20.51794 34075 ft 389 kts 325°
2026-05-04 14:06 40.06338 20.47649 34075 ft 390 kts 324°
2026-05-04 14:06 40.10699 20.43472 34076 ft 388 kts 324°
2026-05-04 14:07 40.15032 20.39294 34094 ft 387 kts 324°
2026-05-04 14:07 40.19336 20.35126 34092 ft 388 kts 324°
2026-05-04 14:08 40.23675 20.30932 34094 ft 388 kts 324°
2026-05-04 14:08 40.28016 20.26736 34089 ft 388 kts 324°
2026-05-04 14:09 40.34514 20.20436 34089 ft 388 kts 324°
2026-05-04 14:10 40.40989 20.14147 34103 ft 388 kts 324°
2026-05-04 14:10 40.45329 20.09938 34074 ft 388 kts 324°
2026-05-04 14:11 40.49658 20.05707 34079 ft 388 kts 324°
2026-05-04 14:11 40.56120 19.99386 34087 ft 388 kts 324°
2026-05-04 14:12 40.60449 19.95141 34089 ft 388 kts 324°
2026-05-04 14:13 40.66939 19.88757 34102 ft 388 kts 324°
2026-05-04 14:13 40.70539 19.85215 34098 ft 389 kts 324°
2026-05-04 14:14 40.75593 19.80246 34092 ft 390 kts 324°
2026-05-04 14:14 40.82101 19.73817 34093 ft 389 kts 324°
2026-05-04 14:15 40.90727 19.65281 34119 ft 389 kts 324°
2026-05-04 14:16 40.97227 19.58822 34105 ft 390 kts 324°
2026-05-04 14:17 41.03006 19.53064 34112 ft 391 kts 324°
2026-05-04 14:18 41.09528 19.46551 34116 ft 391 kts 324°
2026-05-04 14:19 41.18186 19.37875 34104 ft 392 kts 323°
2026-05-04 14:19 41.22532 19.33515 34107 ft 392 kts 323°
2026-05-04 14:20 41.27588 19.28429 34113 ft 392 kts 323°
2026-05-04 14:20 41.31229 19.24766 34108 ft 392 kts 323°
2026-05-04 14:21 41.37729 19.18218 34110 ft 392 kts 323°
2026-05-04 14:21 41.42080 19.13815 34120 ft 393 kts 323°
2026-05-04 14:22 41.46416 19.09382 34105 ft 394 kts 322°
2026-05-04 14:22 41.50597 19.04652 34102 ft 394 kts 319°
2026-05-04 14:23 41.56703 18.97345 34107 ft 395 kts 319°
2026-05-04 14:24 41.60819 18.92483 34115 ft 395 kts 320°
2026-05-04 14:24 41.64946 18.87651 34117 ft 395 kts 320°
2026-05-04 14:25 41.69080 18.82815 34116 ft 395 kts 320°
2026-05-04 14:25 41.75250 18.75573 34093 ft 396 kts 319°
2026-05-04 14:26 41.79390 18.70688 34097 ft 397 kts 319°
2026-05-04 14:26 41.83507 18.65813 34109 ft 398 kts 319°
2026-05-04 14:27 41.87654 18.60902 34111 ft 398 kts 319°
2026-05-04 14:27 41.91811 18.55981 34123 ft 398 kts 319°
2026-05-04 14:28 41.95966 18.51055 34117 ft 399 kts 319°
2026-05-04 14:28 42.00118 18.46109 34117 ft 399 kts 319°
2026-05-04 14:29 42.08401 18.36209 34102 ft 401 kts 319°
2026-05-04 14:30 42.12571 18.31222 34111 ft 401 kts 319°
2026-05-04 14:31 42.18835 18.23717 34127 ft 402 kts 319°
2026-05-04 14:32 42.27157 18.13700 34138 ft 402 kts 319°
2026-05-04 14:32 42.31328 18.08667 34146 ft 402 kts 319°
2026-05-04 14:33 42.35500 18.03626 34148 ft 402 kts 319°
2026-05-04 14:33 42.39672 17.98579 34146 ft 402 kts 319°
2026-05-04 14:34 42.43835 17.93527 34150 ft 402 kts 319°
2026-05-04 14:34 42.47977 17.88503 34148 ft 402 kts 319°
2026-05-04 14:35 42.52139 17.83429 34139 ft 402 kts 319°
2026-05-04 14:35 42.56298 17.78346 34135 ft 402 kts 319°
2026-05-04 14:36 42.60457 17.73259 34117 ft 403 kts 319°
2026-05-04 14:36 42.64618 17.68163 34118 ft 404 kts 319°
2026-05-04 14:37 42.68764 17.63077 34117 ft 404 kts 319°
2026-05-04 14:37 42.72945 17.57947 34119 ft 405 kts 318°
2026-05-04 14:38 42.77126 17.52797 34124 ft 406 kts 318°
2026-05-04 14:38 42.81306 17.47636 34124 ft 406 kts 318°
2026-05-04 14:39 42.85479 17.42471 34119 ft 406 kts 318°
2026-05-04 14:39 42.89655 17.37291 34106 ft 406 kts 318°
2026-05-04 14:40 42.95913 17.29527 34099 ft 408 kts 318°
2026-05-04 14:40 43.00112 17.24302 34102 ft 409 kts 318°
2026-05-04 14:41 43.04310 17.19070 34102 ft 409 kts 318°
2026-05-04 14:42 43.12682 17.08598 34103 ft 409 kts 318°
2026-05-04 14:42 43.16910 17.03378 34095 ft 409 kts 319°
2026-05-04 14:43 43.21218 16.98259 34093 ft 410 kts 319°
2026-05-04 14:43 43.25538 16.93129 34095 ft 411 kts 319°
2026-05-04 14:44 43.29840 16.87964 34100 ft 411 kts 319°
2026-05-04 14:44 43.34140 16.82766 34102 ft 412 kts 319°
2026-05-04 14:45 43.38438 16.77557 34105 ft 412 kts 319°
2026-05-04 14:45 43.42713 16.72381 34109 ft 412 kts 319°
2026-05-04 14:46 43.47012 16.67166 34098 ft 413 kts 318°
2026-05-04 14:46 43.51320 16.61924 34099 ft 414 kts 318°
2026-05-04 14:47 43.55636 16.56662 34112 ft 414 kts 318°
2026-05-04 14:47 43.59922 16.51421 34102 ft 415 kts 318°
2026-05-04 14:48 43.64243 16.46137 34109 ft 415 kts 318°
2026-05-04 14:48 43.68560 16.40846 34111 ft 415 kts 318°
2026-05-04 14:49 43.72879 16.35543 34111 ft 415 kts 318°
2026-05-04 14:49 43.77201 16.30227 34106 ft 416 kts 318°
2026-05-04 14:50 43.81504 16.24921 34106 ft 417 kts 318°
2026-05-04 14:50 43.85840 16.19566 34110 ft 418 kts 318°
2026-05-04 14:51 43.90181 16.14192 34109 ft 419 kts 318°
2026-05-04 14:51 43.94117 16.09312 34107 ft 419 kts 317°
2026-05-04 14:52 43.97634 16.04941 34108 ft 419 kts 317°
2026-05-04 14:52 44.01950 15.99555 34099 ft 421 kts 317°
2026-05-04 14:53 44.06308 15.94113 34097 ft 422 kts 317°
2026-05-04 14:53 44.10679 15.88656 34109 ft 422 kts 317°
2026-05-04 14:54 44.15044 15.83184 34113 ft 422 kts 317°
2026-05-04 14:54 44.19390 15.77689 34112 ft 423 kts 317°
2026-05-04 14:55 44.23746 15.72156 34101 ft 424 kts 317°
2026-05-04 14:55 44.28087 15.66634 34103 ft 426 kts 317°
2026-05-04 14:56 44.32467 15.61061 34110 ft 426 kts 317°
2026-05-04 14:56 44.36839 15.55483 34124 ft 425 kts 317°
2026-05-04 14:57 44.41203 15.49912 34106 ft 426 kts 316°
2026-05-04 14:57 44.45580 15.44308 34093 ft 427 kts 316°
2026-05-04 14:58 44.49938 15.38707 34087 ft 428 kts 316°
2026-05-04 14:58 44.54334 15.33052 34102 ft 429 kts 316°
2026-05-04 14:59 44.58722 15.27394 34124 ft 428 kts 317°
2026-05-04 15:00 44.65289 15.18894 34105 ft 429 kts 316°
2026-05-04 15:00 44.69684 15.13193 34096 ft 431 kts 316°
2026-05-04 15:01 44.76270 15.04650 34098 ft 432 kts 316°
2026-05-04 15:01 44.80673 14.98902 34115 ft 431 kts 316°
2026-05-04 15:02 44.85064 14.93164 34119 ft 431 kts 316°
2026-05-04 15:02 44.89452 14.87419 34127 ft 430 kts 316°
2026-05-04 15:03 44.93829 14.81678 34125 ft 429 kts 316°
2026-05-04 15:03 44.98202 14.75938 34124 ft 429 kts 316°
2026-05-04 15:04 45.02544 14.70215 34127 ft 429 kts 315°
2026-05-04 15:04 45.06908 14.64447 34105 ft 430 kts 315°
2026-05-04 15:05 45.11281 14.58656 34093 ft 432 kts 315°
2026-05-04 15:05 45.15670 14.52838 34090 ft 433 kts 315°
2026-05-04 15:06 45.20065 14.47003 34094 ft 433 kts 315°
2026-05-04 15:07 45.26627 14.38254 34107 ft 434 kts 314°
2026-05-04 15:07 45.31023 14.32376 34108 ft 434 kts 314°
2026-05-04 15:08 45.35414 14.26494 34101 ft 434 kts 315°
2026-05-04 15:08 45.39810 14.20586 34102 ft 435 kts 314°
2026-05-04 15:09 45.44203 14.14666 34102 ft 435 kts 315°
2026-05-04 15:09 45.48572 14.08775 34098 ft 436 kts 314°
2026-05-04 15:10 45.55178 13.99864 34088 ft 436 kts 314°
2026-05-04 15:11 45.61772 13.90897 34090 ft 437 kts 314°
2026-05-04 15:11 45.66165 13.84906 34091 ft 436 kts 314°
2026-05-04 15:12 45.70528 13.78950 34077 ft 437 kts 314°
2026-05-04 15:12 45.74925 13.72946 34080 ft 438 kts 314°
2026-05-04 15:13 45.79334 13.66918 34071 ft 438 kts 314°
2026-05-04 15:13 45.83741 13.60863 34070 ft 439 kts 314°
2026-05-04 15:14 45.88140 13.54795 34083 ft 439 kts 314°
2026-05-04 15:14 45.92528 13.48691 34075 ft 439 kts 313°
2026-05-04 15:15 45.96880 13.42607 34071 ft 440 kts 313°
2026-05-04 15:15 46.01268 13.36471 34072 ft 440 kts 313°
2026-05-04 15:16 46.07855 13.27267 34077 ft 440 kts 313°
2026-05-04 15:16 46.12198 13.21165 33668 ft 426 kts 313°
2026-05-04 15:17 46.14411 13.18400 33418 ft 419 kts 321°
2026-05-04 15:17 46.19241 13.13813 32871 ft 413 kts 324°
2026-05-04 15:17 46.21642 13.11559 32617 ft 410 kts 324°
2026-05-04 15:18 46.23964 13.09369 32359 ft 409 kts 324°
2026-05-04 15:18 46.26370 13.07097 32094 ft 407 kts 324°
2026-05-04 15:18 46.28732 13.04860 31829 ft 405 kts 324°
2026-05-04 15:19 46.33418 13.00420 31331 ft 401 kts 324°
2026-05-04 15:19 46.35745 12.98218 31027 ft 396 kts 324°
2026-05-04 15:19 46.40307 12.93901 30136 ft 387 kts 323°
2026-05-04 15:20 46.42545 12.91774 29650 ft 382 kts 323°
2026-05-04 15:20 46.44745 12.89679 29228 ft 376 kts 323°
2026-05-04 15:20 46.46883 12.87649 28822 ft 370 kts 324°
2026-05-04 15:20 46.49019 12.85618 28418 ft 365 kts 324°
2026-05-04 15:21 46.51126 12.83610 28004 ft 360 kts 324°
2026-05-04 15:21 46.53205 12.81629 27616 ft 355 kts 324°
2026-05-04 15:21 46.57293 12.77724 26822 ft 348 kts 324°
2026-05-04 15:22 46.59307 12.75790 26418 ft 346 kts 324°
2026-05-04 15:22 46.61313 12.73864 26009 ft 344 kts 324°
2026-05-04 15:22 46.65259 12.70078 25199 ft 340 kts 324°
2026-05-04 15:23 46.67224 12.68192 24805 ft 338 kts 324°
2026-05-04 15:23 46.69180 12.66314 24372 ft 335 kts 324°
2026-05-04 15:23 46.71126 12.64446 23970 ft 335 kts 324°
2026-05-04 15:23 46.73068 12.62578 23533 ft 333 kts 324°
2026-05-04 15:24 46.76901 12.58877 22689 ft 328 kts 323°
2026-05-04 15:24 46.80672 12.55219 21899 ft 324 kts 323°
2026-05-04 15:25 46.82544 12.53406 21497 ft 322 kts 323°
2026-05-04 15:25 46.84405 12.51607 21119 ft 320 kts 324°
2026-05-04 15:25 46.86256 12.49818 20738 ft 318 kts 323°
2026-05-04 15:26 46.89906 12.46279 19985 ft 315 kts 323°
2026-05-04 15:26 46.91728 12.44508 19604 ft 313 kts 324°
2026-05-04 15:26 46.95346 12.40993 18860 ft 311 kts 323°
2026-05-04 15:27 46.97143 12.39243 18479 ft 310 kts 323°
2026-05-04 15:27 47.00720 12.35761 17704 ft 308 kts 323°
2026-05-04 15:28 47.04267 12.32291 16960 ft 306 kts 323°
2026-05-04 15:28 47.06033 12.30565 16605 ft 304 kts 323°
2026-05-04 15:28 47.09550 12.27122 15898 ft 304 kts 323°
2026-05-04 15:29 47.11282 12.25426 15554 ft 303 kts 321°
2026-05-04 15:30 47.18280 12.18555 14156 ft 302 kts 323°
2026-05-04 15:30 47.23434 12.13473 13086 ft 292 kts 323°
2026-05-04 15:31 47.26779 12.10166 12404 ft 288 kts 323°
2026-05-04 15:31 47.28444 12.08520 12057 ft 288 kts 323°
2026-05-04 15:32 47.33405 12.03620 11054 ft 284 kts 324°
2026-05-04 15:32 47.36758 12.00133 10950 ft 302 kts 312°
2026-05-04 15:33 47.38398 11.94703 10889 ft 292 kts 269°
2026-05-04 15:34 47.35556 11.87408 9481 ft 271 kts 209°
2026-05-04 15:34 47.34078 11.85873 9500 ft 250 kts 222°
2026-05-04 15:34 47.32307 11.81552 8903 ft 250 kts 254°
2026-05-04 15:35 47.31689 11.76560 8164 ft 250 kts 257°
2026-05-04 15:35 47.31358 11.74070 7809 ft 244 kts 255°
2026-05-04 15:35 47.31034 11.71692 7484 ft 229 kts 256°
2026-05-04 15:36 47.30459 11.67452 7069 ft 192 kts 255°
2026-05-04 15:36 47.30206 11.65599 6826 ft 180 kts 254°
2026-05-04 15:36 47.29962 11.63823 6566 ft 174 kts 253°
2026-05-04 15:37 47.29728 11.62108 6293 ft 166 kts 255°
2026-05-04 15:37 47.29500 11.60447 6028 ft 164 kts 254°
2026-05-04 15:37 47.29282 11.58851 5756 ft 156 kts 252°
2026-05-04 15:37 47.29071 11.57311 5505 ft 151 kts 251°
2026-05-04 15:38 47.28863 11.55802 5263 ft 152 kts 252°
2026-05-04 15:38 47.28652 11.54269 5011 ft 153 kts 253°
2026-05-04 15:38 47.28436 11.52700 4758 ft 159 kts 256°
2026-05-04 15:38 47.28216 11.51103 4491 ft 159 kts 255°
2026-05-04 15:39 47.27999 11.49521 4224 ft 157 kts 256°
2026-05-04 15:39 47.27781 11.47943 3966 ft 157 kts 255°
2026-05-04 15:39 47.27362 11.44891 3461 ft 151 kts 256°
2026-05-04 15:40 47.27147 11.43389 3225 ft 149 kts 252°
2026-05-04 15:40 47.26882 11.41918 2911 ft 148 kts 251°
2026-05-04 15:40 47.26639 11.40447 2682 ft 153 kts 260°
2026-05-04 15:40 47.26517 11.38909 2558 ft 151 kts 258°
2026-05-04 15:41 47.26387 11.37347 2184 ft 155 kts 256°
2026-05-04 15:41 47.26164 11.35777 1958 ft 157 kts 255°
2026-05-04 15:41 47.26011 11.34254 1905 ft 135 kts 257°